EW4389 Weather Reports


Display with metric or nautical units.
time (UTC)temp
F
wind
direction
speed
MPH
gust
MPH
rain 1hr
in
rain 24hr
in
rain mn
in
humidity
%
barometer
mb
20260904020038 71 293 2.0 9.0 0.28 0.42 0.32 33 1009.4
20260904014530 72 300 5.0 10.0 0.25 0.37 0.26 34 1008.9
20260904013025 72 339 4.0 10.0 0.14 0.25 0.14 35 1008.7
20260904011521 73 344 2.0 4.0 0.04 0.15 0.04 35 1008.8
20260904010017 74 344 3.0 6.0 0.03 0.14 0.03 36 1008.5
20260904004514 74 350 7.0 11.0 0.01 0.48 0.01 37 1008.5
20260904003009 75 339 4.0 8.0 0.00 0.47 0.00 38 1008.8
20260904001504 75 296 0.0 4.0 0.00 0.47 0.00 40 1008.5
20260904000116 75 300 1.0 4.0 0.00 0.47 0.00 41 1008.6
20260903234556 75 300 2.0 5.0 0.00 0.47 0.00 44 1008.7
20260903233117 75 296 3.0 8.0 0.00 0.47 0.00 46 1008.7
20260903231549 75 306 4.0 8.0 0.00 0.47 0.00 48 1008.8
20260903230104 76 309 4.0 8.0 0.00 0.47 0.00 50 1008.8
20260903224543 76 315 4.0 8.0 0.00 0.54 0.00 50 1008.8
20260903223058 77 319 2.0 6.0 0.00 0.54 0.00 51 1008.4
20260903221531 77 316 4.0 8.0 0.00 0.54 0.00 53 1008.3
20260903220026 77 310 4.0 10.0 0.00 0.54 0.00 55 1008.0
20260903214521 78 312 4.0 9.0 0.00 0.54 0.00 54 1008.1
20260903213030 78 339 3.0 8.0 0.00 0.54 0.00 52 1008.3
20260903211513 78 313 4.0 10.0 0.00 0.54 0.00 53 1008.0
20260903210012 78 316 2.0 8.0 0.00 0.54 0.00 53 1008.1
20260903204511 78 314 4.0 9.0 0.00 0.54 0.00 55 1008.3
20260903203024 79 322 3.0 10.0 0.00 0.54 0.00 56 1008.4
20260903201508 79 317 4.0 10.0 0.00 0.54 0.00 57 1008.5
20260903200004 79 307 4.0 11.0 0.00 0.54 0.00 56 1008.6
20260903194559 79 330 6.0 12.0 0.00 0.54 0.00 54 1008.7
20260903193054 78 339 8.0 12.0 0.00 0.54 0.00 56 1009.0
20260903191550 79 323 4.0 11.0 0.00 0.54 0.00 51 1008.9
20260903190046 79 302 4.0 10.0 0.00 0.54 0.00 54 1009.1
20260903184550 79 320 2.0 11.0 0.00 0.54 0.00 54 1009.0
20260903183038 79 339 4.0 13.0 0.00 0.54 0.00 53 1009.1
20260903181532 78 285 6.0 12.0 0.00 0.54 0.00 53 1009.1
20260903180033 78 306 5.0 11.0 0.00 0.54 0.00 53 1009.4
20260903174523 78 289 3.0 11.0 0.00 0.54 0.00 51 1009.4
20260903173018 78 308 4.0 10.0 0.00 0.54 0.00 54 1009.4
20260903171518 78 306 4.0 11.0 0.00 0.54 0.00 51 1009.4
20260903170012 78 280 6.0 14.0 0.00 0.54 0.00 49 1009.5
20260903164507 78 300 5.0 12.0 0.00 0.54 0.00 44 1009.5
20260903163002 77 290 6.0 14.0 0.00 0.54 0.00 34 1009.6
20260903161600 76 296 4.0 13.0 0.00 0.54 0.00 32 1009.8
20260903160054 74 302 4.0 11.0 0.00 0.54 0.00 33 1009.9
20260903154557 74 299 5.0 13.0 0.00 0.54 0.00 32 1010.2
20260903153050 73 267 5.0 12.0 0.00 0.54 0.00 32 1010.2
20260903151549 73 289 2.0 5.0 0.00 0.54 0.00 32 1010.2
20260903150059 73 288 2.0 8.0 0.00 0.54 0.00 32 1010.2
20260903144552 73 293 2.0 8.0 0.00 0.54 0.00 32 1010.2
20260903143048 73 273 1.0 8.0 0.00 0.54 0.00 32 1010.2
20260903141547 73 277 3.0 8.0 0.00 0.54 0.00 32 1010.1
20260903140047 73 271 2.0 11.0 0.00 0.54 0.00 31 1010.0
20260903134548 73 280 5.0 13.0 0.00 1.53 0.00 31 1010.1
20260903133041 72 277 5.0 13.0 0.00 1.53 0.00 32 1010.1
20260903131543 71 261 8.0 13.0 0.00 1.53 0.00 32 1010.2
20260903130043 71 266 5.0 11.0 0.00 1.53 0.00 32 1010.2
20260903124534 70 280 3.0 11.0 0.00 1.70 0.00 32 1010.2
20260903123040 70 275 4.0 14.0 0.00 1.70 0.00 32 1010.3
20260903121549 69 265 5.0 12.0 0.00 1.70 0.00 32 1010.2
20260903120029 69 281 3.0 12.0 0.00 1.70 0.00 33 1010.1
20260903114526 69 273 6.0 13.0 0.00 1.70 0.00 33 1009.9
20260903113023 69 288 4.0 14.0 0.00 1.70 0.00 33 1009.7
20260903111524 68 279 6.0 11.0 0.00 1.70 0.00 33 1009.5
20260903110018 68 281 8.0 13.0 0.00 1.70 0.00 33 1009.2
20260903104523 68 339 7.0 13.0 0.00 1.70 0.00 33 1009.1
20260903103015 68 280 5.0 12.0 0.00 1.70 0.00 33 1009.0
20260903101513 68 287 3.0 11.0 0.00 1.70 0.00 33 1008.9
20260903100030 68 282 3.0 12.0 0.00 1.70 0.00 33 1008.7
20260903094514 68 292 4.0 10.0 0.00 1.70 0.00 33 1008.6
20260903093011 68 300 5.0 13.0 0.00 1.70 0.00 33 1008.7
20260903091510 68 287 5.0 12.0 0.00 1.70 0.00 33 1008.9
20260903090010 68 278 5.0 13.0 0.00 1.70 0.00 33 1008.7
20260903084516 68 269 3.0 12.0 0.00 1.70 0.00 33 1008.9
20260903083010 68 248 2.0 11.0 0.00 1.70 0.00 33 1008.6
20260903081508 68 264 4.0 12.0 0.00 1.70 0.00 33 1008.3
20260903080007 68 293 4.0 11.0 0.00 1.70 0.00 33 1008.1
20260903074507 68 277 7.0 17.0 0.00 1.70 0.00 33 1008.5
20260903073009 68 280 5.0 11.0 0.00 1.70 0.00 33 1008.3
20260903071559 68 275 7.0 16.0 0.00 1.70 0.00 33 1008.5
20260903070158 68 285 7.0 15.0 0.00 1.70 0.00 33 1008.6
20260903064555 68 262 7.0 15.0 0.00 1.70 0.00 33 1008.8
20260903063053 68 281 8.0 17.0 0.00 1.70 0.00 33 1008.8
20260903061554 67 260 3.0 11.0 0.00 1.70 0.00 33 1008.8
20260903060059 68 267 2.0 7.0 0.00 1.70 0.00 33 1008.9
20260903054546 68 221 2.0 12.0 0.00 1.70 0.00 33 1008.8
20260903053045 68 269 4.0 13.0 0.00 1.70 0.00 33 1009.0
20260903051540 68 250 5.0 15.0 0.00 1.70 0.00 33 1008.8
20260903050043 68 264 5.0 13.0 0.00 1.70 0.00 33 1008.9
20260903044539 68 264 4.0 12.0 0.00 1.70 0.00 33 1008.7
20260903043033 67 277 5.0 12.0 0.00 1.70 0.00 33 1008.7
20260903041535 67 248 7.0 17.0 0.00 1.70 0.00 33 1008.7
20260903040028 67 236 5.0 12.0 0.00 1.70 0.00 33 1008.6
20260903034529 67 339 5.0 12.0 0.01 1.70 1.70 33 1008.8
20260903033029 67 250 2.0 8.0 0.03 1.70 1.70 33 1009.1
20260903031533 68 265 2.0 9.0 0.10 1.70 1.70 33 1009.2
20260903030025 68 271 3.0 12.0 0.10 1.70 1.70 33 1009.4
20260903024524 68 242 5.0 13.0 0.09 1.69 1.69 33 1009.7
20260903023024 68 238 2.0 12.0 0.08 1.67 1.67 33 1010.3
20260903021534 68 306 7.0 10.0 0.01 1.60 1.60 33 1011.1